Weather in Hohhot

China     40°49′30″N   111°39′41″E
temp.,
°C
wind,
m/s
gust,
m/s
humid.,
%
clouds,
%
prec.,
mm/h
press.,
hPa
HPBL,
m
10 may, mon
mon1023:00+15ene474493 0.0 1006504
02:00+14ene2449100 0.0 1007157
05:00+12n3532100 0.0 1009102
08:00+15ne2225100 0.0 1011462
11:00+19ese2316100 0.0 10102158
14:00+22s341397 0.0 10072787
17:00+23s4412100 0.0 10062131
20:00+19sw351520 0.0 1007134
11 may, tue
tue1123:00+16wsw121898 0.0 100812
02:00+14s222116 0.0 100715
05:00+13sw112399 0.0 100711
08:00+17sw3617100 0.0 1008444
11:00+24sw8101574 0.0 10051640
14:00+29sw8121549 0.0 10014181
17:00+25wsw6112539 0.1 1000946
20:00+21nne4837100 0.2 1003285
12 may, wed
wed1223:00+19ne6103313 0.0 1006375
02:00+16nne4732100 0.0 1007307
05:00+14ne474363 0.1 1008284
08:00+17ne56338 0.1 1009518
11:00+22ene4428100 0.0 10061227
14:00+26nnw132411 0.0 10021991
17:00+28nw35225 0.0 10001702
20:00+23sw113367 0.1 100021
13 may, thu
thu1323:00+19sse5116097 0.4 1005487
02:00+16n227214 1.5 100570
05:00+16ene12645 0.1 100442
08:00+22sw813489 0.1 10041377
11:00+26sw912313 0.0 10022135
14:00+30ssw1011220 0.0 9982724
17:00+30sw1012214 0.0 9963142
20:00+27sw6122771 0.0 997507
14 may, fri
fri1423:00+23ssw9164537 0.1 9991076
02:00+22sw61152100 0.1 10001383
05:00+19sw61070100 2.3 1001699
08:00+16nne5844100 5.1 1004486
11:00+15nne4648100 0.9 1006604
14:00+19n6824100 1.1 10051563
17:00+17n6731100 0.0 10071217
20:00+15nne353792 0.0 1010445